星链-11690 (STARLINK-11690)

导读

STARLINK-11690是美国太空探索技术公司(SpaceX)于2025年6月3日发射的星链(Starlink)低轨互联网卫星,属于星链第二代星座组网卫星的一部分。 该卫星运行于近地轨道,依托星链庞大卫星星座,面向全球提供高速低延迟卫星互联网服务,覆盖偏远地区网络接入,同时支持航空、海运通信等商业场景,并可服务于应急通信需求,不过星链大规模星座也引发了太空安全等领域的国际争议。

Basic Information
目录编号:
64242
目录名称:
STARLINK-11690
国际标识:
2025-119K
轨道中心:
EARTH
卫星名称:
星链-11690
卫星全名:
星链-11690 (STARLINK-11690)
卫星状态:
在轨 (已飞行459 天)
发射日期:
2025-06-03 UTC
国别 :
美国 (US)
星等 :
--
Orbit Information
数据来源 国际轨道数据
星历时间: 2026-09-05T08:00:02+0800
14小时前
查看轨道信息
半长轴: 6734.512km
偏心率: 0.0001422
轨道倾角: 43.000°
近地点辐角 264.063°
升交点赤经 208.199°
平近点角 202.602°
近地点: 355.417km
远地点: 357.333km
周期: 91.668分钟
每日圈数: 15.708822
Detailed Information
固有亮度:
5
最大亮度:
2.5
卫星平台:
Starlink V1.0
覆盖范围:
全球
运营商:
太空探索技术公司
运营商所在国:
美国
制造商(研发单位):
太空探索技术公司
制造商所在国:
美国
使用方式:
暂无
Satellite Introduction
Starlink 计划是 SpaceX 推出的全球卫星互联网项目,通过发射低轨道卫星,为全球尤其是偏远地区提供高速、低延迟的互联网服务。自 2019 年起,Starlink 已部署数千颗卫星,旨在缩小全球数字鸿沟,推动互联网普及。该项目还为军事、航空等行业提供通信支持,带来广泛经济效益。
2D Orbit Map
3D Orbit Map
Orbit Altitude Analysis Chart
Orbit Inclination Analysis Chart
Orbit Comprehensive Analysis Chart
View Comprehensive Chart
Conjunction Data List
Event ID Objects TCA Miss Dist (km) Collision Risk Probability Collision Risk Index (CRI) Action
CDM_260906-214706-039806-424221
2026-09-06T
21:47:45+0000
1.832 km
极远距离
2.27651E-6 低风险 0.42
CDM_260902-070906-331606-424221
2026-09-02T
07:09:06+0000
2.381 km
极远距离
1.007564E-6 低风险 0.35
CDM_260902-045106-331606-424221
2026-09-02T
04:51:47+0000
2.694 km
极远距离
8.288243E-7 极低风险 0.33